Estación Meteorológica Peña el Pijo (Robertgarden) [ 02/19/20 14:37:29 CET ]

Fecha Hora Presion(HPa) Temp (°C) Humedad % Rocio (°C) Viento ( m/s) Direccion Lluvia 1Hora(mm) Lluvia 24H(mm) LLuvia Total(mm)
2020-Jan-21 01:09:43 1003.600 - - - - N     39.88
2020-Jan-21 02:10:27 1002.800 - - - - N     39.88
2020-Jan-21 03:11:04 1002.600 - - - - N     39.88
2020-Jan-21 04:13:57 1001.900 - - - - N     39.88
2020-Jan-21 05:09:33 1000.900 - - - - N     39.88
2020-Jan-21 06:09:13 1000.700 - - - - N     39.88
2020-Jan-21 07:09:03 1001.100 - - - - N     39.88
2020-Jan-21 08:08:55 1000.700 - - - - N     39.88
2020-Jan-21 09:09:12 1000.800 - - - - N     39.88
2020-Jan-21 10:08:39 1000.800 - - - - N     39.88
2020-Jan-21 11:09:50 1000.800 - - - - N     39.88
2020-Jan-21 12:39:15 1000.800 - - - - N     39.88
2020-Jan-21 13:39:08 999.400 - - - - N     39.88
2020-Jan-21 14:09:03 999.400 - - - - N     39.88
2020-Jan-21 15:08:46 999.600 - - - - N     39.88
2020-Jan-21 16:09:29 1000.400 - - - - N     39.88
2020-Jan-21 17:08:54 1000.900 - - - - N     39.88
2020-Jan-21 18:09:20 1001.500 - - - - N     39.88
2020-Jan-21 19:09:16 1002.000 - - - - N     39.88
2020-Jan-21 20:09:09 1002.300 - - - - N     39.88
2020-Jan-21 21:09:06 1002.800 - - - - N     39.88
2020-Jan-21 22:08:50 1003.100 - - - - N     39.88
2020-Jan-21 23:09:09 1003.400 - - - - N     39.88

Temperatura Máxima:    Temperatura Mínima:
Presión Máxima:1003.600 Hpa    Presión Mínima:999.400 Hpa


Volver